TimeMST,TemperatureF,Dew PointF,Humidity,Sea Level PressureIn,VisibilityMPH,Wind Direction,Wind SpeedMPH,Gust SpeedMPH,PrecipitationIn,Events,Conditions,WindDirDegrees,DateUTC
12:55 AM,-2.9,-7.1,82,30.36,10.0,North,5.8,-,N/A,,Clear,350,2013-01-04 07:55:00
1:55 AM,-4.0,-8.0,83,30.38,10.0,North,5.8,-,N/A,,Clear,360,2013-01-04 08:55:00
2:55 AM,-2.9,-8.0,79,30.37,10.0,NNW,3.5,-,N/A,,Clear,340,2013-01-04 09:55:00
3:55 AM,-2.0,-8.0,76,30.37,10.0,North,5.8,-,N/A,,Clear,360,2013-01-04 10:55:00
4:55 AM,-2.0,-7.1,79,30.40,10.0,NNW,4.6,-,N/A,,Clear,330,2013-01-04 11:55:00
5:55 AM,8.1,-2.9,61,30.40,10.0,NNW,8.1,-,N/A,,Clear,330,2013-01-04 12:55:00
6:55 AM,10.0,-2.9,56,30.40,10.0,NNW,5.8,-,N/A,,Clear,340,2013-01-04 13:55:00
7:55 AM,15.1,-0.9,49,30.40,10.0,NW,8.1,-,N/A,,Clear,310,2013-01-04 14:55:00
8:55 AM,19.9,1.9,46,30.38,10.0,NNW,6.9,-,N/A,,Clear,330,2013-01-04 15:55:00
9:55 AM,24.1,6.1,46,30.36,10.0,WNW,8.1,-,N/A,,Clear,300,2013-01-04 16:55:00
10:55 AM,28.9,10.0,45,30.31,10.0,West,11.5,-,N/A,,Clear,270,2013-01-04 17:55:00
11:55 AM,34.0,16.0,48,30.26,10.0,West,8.1,-,N/A,,Clear,280,2013-01-04 18:55:00
12:55 PM,37.9,19.0,47,30.19,10.0,WNW,5.8,-,N/A,,Clear,290,2013-01-04 19:55:00
1:55 PM,42.1,15.1,34,30.15,10.0,North,5.8,-,N/A,,Clear,360,2013-01-04 20:55:00
2:55 PM,42.1,7.0,24,30.14,10.0,North,5.8,-,N/A,,Clear,350,2013-01-04 21:55:00
3:55 PM,37.9,10.9,33,30.16,10.0,East,4.6,-,N/A,,Clear,80,2013-01-04 22:55:00
4:55 PM,24.1,16.0,71,30.23,10.0,East,3.5,-,N/A,,Clear,80,2013-01-04 23:55:00
5:55 PM,15.1,10.0,80,30.22,10.0,Calm,Calm,-,N/A,,Clear,0,2013-01-05 00:55:00
6:55 PM,10.9,7.0,84,30.22,10.0,Calm,Calm,-,N/A,,Clear,0,2013-01-05 01:55:00
7:55 PM,9.0,5.0,84,30.21,10.0,Calm,Calm,-,N/A,,Clear,0,2013-01-05 02:55:00
8:55 PM,6.1,1.9,83,30.19,10.0,NNW,5.8,-,N/A,,Clear,340,2013-01-05 03:55:00
9:55 PM,5.0,1.0,84,30.18,10.0,Calm,Calm,-,N/A,,Clear,0,2013-01-05 04:55:00
10:55 PM,7.0,3.0,84,30.16,10.0,NW,4.6,-,N/A,,Clear,310,2013-01-05 05:55:00
11:55 PM,10.9,3.9,73,30.11,10.0,Variable,3.5,-,N/A,,Clear,0,2013-01-05 06:55:00